This demonstration page uses our WeatherBlox Daily Observations layout. Learn more.

Left ArrowRight Arrow

39.29038, -76.61219

Hourly Observations for November 29, 2022

Temp ( °F °C ) Dew Point ( °F °C ) Humidity (%) Winds ( mph kmh ) Pressure ( in mb ) Visibility ( mi km ) Precip ( " mm )
12:54 am 00:54 Mostly Clear 40 4.4 33 0.6 76 76 Calm 30.12 1020 10 16 0.00 0.00
1:54 am 01:54 Mostly Cloudy 40 4.4 34 1.1 79 79 Calm 30.15 1021 10 16 0.00 0.00
2:54 am 02:54 Mostly Clear 39 3.9 34 1.1 82 82 Calm 30.16 1021 10 16 0.00 0.00
3:54 am 03:54 Mostly Clear 35 1.7 32 0 88 88 Calm 30.16 1021 10 16 0.00 0.00
4:54 am 04:54 Mostly Clear 35 1.7 32 0 88 88 Calm 30.19 1022 10 16 0.00 0.00
5:54 am 05:54 Cloudy 33 0.6 31 -0.6 92 92 Calm 30.21 1023 10 16 0.00 0.00
6:54 am 06:54 Mostly Cloudy 37 2.8 33 0.6 85 85 Calm 30.24 1024 10 16 0.00 0.00
7:54 am 07:54 Mostly Cloudy 40 4.4 35 1.7 83 83 Calm 30.25 1025 10 16 0.00 0.00
8:54 am 08:54 Mostly Cloudy 44 6.7 34 1.1 67 67 E 6 9 30.29 1026 10 16 0.00 0.00
9:54 am 09:54 Mostly Cloudy 45 7.2 36 2.2 70 70 SE 3 6 30.30 1026 10 16 0.00 0.00
10:54 am 10:54 Mostly Cloudy 48 8.9 32 0 54 54 ESE 8 13 30.30 1026 10 16 0.00 0.00
11:54 am 11:54 Cloudy 49 9.4 32 0 52 52 ESE 7 11 30.28 1026 10 16 0.00 0.00
12:54 pm 12:54 Mostly Cloudy 50 10 33 0.6 52 52 ESE 6 9 30.25 1025 10 16 0.00 0.00
1:54 pm 13:54 Mostly Cloudy 50 10 33 0.6 52 52 ESE 3 6 30.24 1024 10 16 0.00 0.00
2:54 pm 14:54 Mostly Cloudy 50 10 35 1.7 56 56 SE 9 15 30.23 1024 10 16 0.00 0.00
3:54 pm 15:54 Mostly Cloudy 50 10 34 1.1 54 54 SE 7 11 30.24 1024 10 16 0.00 0.00
4:54 pm 16:54 Mostly Cloudy 48 8.9 34 1.1 58 58 SE 6 9 30.22 1023 10 16 0.00 0.00
5:54 pm 17:54 Mostly Cloudy 46 7.8 36 2.2 68 68 SSE 3 6 30.24 1024 10 16 0.00 0.00
6:54 pm 18:54 Mostly Cloudy 44 6.7 37 2.8 76 76 ESE 6 9 30.24 1024 10 16 0.00 0.00
7:54 pm 19:54 Mostly Cloudy 45 7.2 37 2.8 74 74 ESE 5 7 30.23 1024 10 16 0.00 0.00
8:54 pm 20:54 Mostly Cloudy 43 6.1 37 2.8 79 79 E 5 7 30.21 1023 10 16 0.00 0.00
9:54 pm 21:54 Cloudy 44 6.7 38 3.3 79 79 Calm 30.23 1024 10 16 0.00 0.00
10:54 pm 22:54 Cloudy 43 6.1 38 3.3 82 82 E 5 7 30.20 1023 10 16 0.00 0.00
11:54 pm 23:54 Cloudy 43 6.1 39 3.9 86 86 Calm 30.18 1022 10 16 0.00 0.00

Powered by AerisWeather